Location: doobydoo
(53.3403°N, 2.6908°W)
Time: 10:50:54
(UTC+00:00)

ISS - Pass Details

Date: 05 December 2021
Orbit: 413 x 422 km, 51.6° (Epoch: 28 January)

Event Time Altitude Azimuth Distance (km) Brightness Sun altitude
Rises 17:33:49 0° 279° (W) 2,389 1.2 -13.9°
Reaches altitude 10° 17:36:04 10° 269° (W) 1,519 0.3 -14.2°
Maximum altitude 17:39:06 30° 206° (SSW) 785 -1.9 -14.6°
Drops below altitude 10° 17:42:08 10° 143° (SE) 1,507 -1.1 -15.1°
Enters shadow 17:42:38 - 140° (SE) 1,697 -0.9 -15.1°
